TimeWST,TemperatureF,Dew PointF,Humidity,Sea Level PressureIn,VisibilityMPH,Wind Direction,Wind SpeedMPH,Gust SpeedMPH,PrecipitationIn,Events,Conditions,WindDirDegrees,DateUTC
12:00 AM,81,72,67,29.95,,North,2.3,,,,,10,2012-10-12 16:00:00
12:00 AM,80.6,71.6,74,29.95,-9999.0,North,2.3,-,N/A,,Unknown,10,2012-10-12 16:00:00
1:00 AM,78.8,71.6,78,29.95,-9999.0,Calm,Calm,-,N/A,,Unknown,0,2012-10-12 17:00:00
2:00 AM,75.2,69.8,83,29.92,-9999.0,Calm,Calm,-,N/A,,Unknown,0,2012-10-12 18:00:00
3:00 AM,73,67,77,29.92,,Calm,Calm,,,,,,2012-10-12 19:00:00
3:00 AM,73.4,68.0,83,29.92,-9999.0,Calm,Calm,-,N/A,,Unknown,0,2012-10-12 19:00:00
4:00 AM,71.6,68.0,88,29.92,-9999.0,Calm,Calm,-,N/A,,Unknown,0,2012-10-12 20:00:00
5:00 AM,69.8,66.2,88,29.95,-9999.0,Calm,Calm,-,N/A,,Unknown,0,2012-10-12 21:00:00
6:00 AM,71,69,89,29.96,,North,4.6,,,,,0,2012-10-12 22:00:00
6:00 AM,71.6,68.0,88,29.95,-9999.0,North,4.6,-,N/A,,Unknown,360,2012-10-12 22:00:00
8:00 AM,86.0,71.6,62,30.01,-9999.0,North,5.8,-,N/A,,Unknown,350,2012-10-13 00:00:00
9:00 AM,89,68,40,29.98,,NNW,6.9,,,,,340,2012-10-13 01:00:00
9:00 AM,89.6,68.0,49,29.98,-9999.0,NNW,6.9,-,N/A,,Unknown,340,2012-10-13 01:00:00
10:00 AM,93.2,68.0,44,29.98,-9999.0,North,5.8,-,N/A,,Unknown,350,2012-10-13 02:00:00
11:00 AM,96.8,68.0,39,29.95,-9999.0,North,5.8,-,N/A,,Unknown,360,2012-10-13 03:00:00
12:00 PM,97,65,26,29.91,,NNE,6.9,,,,,20,2012-10-13 04:00:00
12:00 PM,96.8,66.2,37,29.92,-9999.0,NNE,6.9,-,N/A,,Unknown,20,2012-10-13 04:00:00
1:00 PM,96.8,62.6,32,29.86,-9999.0,NW,4.6,-,N/A,,Unknown,320,2012-10-13 05:00:00
2:00 PM,96.8,66.2,37,29.86,-9999.0,West,6.9,-,N/A,,Unknown,270,2012-10-13 06:00:00
3:00 PM,98,63,23,29.83,,NW,4.6,,,,,310,2012-10-13 07:00:00
3:00 PM,98.6,62.6,30,29.83,-9999.0,NW,4.6,-,N/A,,Unknown,310,2012-10-13 07:00:00
4:00 PM,95.0,64.4,36,29.83,-9999.0,NW,6.9,-,N/A,,Unknown,310,2012-10-13 08:00:00
5:00 PM,96.8,62.6,32,29.83,-9999.0,WNW,5.8,-,N/A,,Unknown,300,2012-10-13 09:00:00
6:00 PM,92,64,29,29.86,,NW,5.8,,,,,310,2012-10-13 10:00:00
6:00 PM,91.4,64.4,41,29.86,-9999.0,NW,5.8,-,N/A,,Unknown,310,2012-10-13 10:00:00
7:00 PM,86.0,68.0,55,29.89,-9999.0,NW,6.9,-,N/A,,Unknown,310,2012-10-13 11:00:00
8:00 PM,82.4,66.2,58,29.92,-9999.0,NW,1.2,-,N/A,,Unknown,320,2012-10-13 12:00:00
9:00 PM,79,66,55,29.94,,NNW,4.6,,,,,340,2012-10-13 13:00:00
9:00 PM,78.8,66.2,65,29.95,-9999.0,NNW,4.6,-,N/A,,Unknown,340,2012-10-13 13:00:00
10:00 PM,77.0,64.4,65,29.95,-9999.0,West,4.6,-,N/A,,Unknown,270,2012-10-13 14:00:00
11:00 PM,77.0,68.0,74,29.95,-9999.0,WSW,5.8,-,N/A,,Unknown,240,2012-10-13 15:00:00